Location: Karcze
(52.0945°N, 22.4786°E)
Time: 22:25:15
(UTC+00:00)

Transit 4A - Pass Details

Date: 29 July 2021
Orbit: 871 x 974 km, 66.8° (Epoch: 18 September)

Event Time Altitude Azimuth Distance (km) Brightness Sun altitude
Exits shadow 22:20:48 28° 140° (SE) 1,606 8.7 -19.3°
Maximum altitude 22:22:17 31° 113° (ESE) 1,484 8.7 -19.3°
Drops below altitude 10° 22:27:20 10° 53° (NE) 2,528 10.6 -19.4°
Sets 22:30:03 0° 43° (NE) 3,469 11.6 -19.4°
